Location: ???????
(55.7027°N, 37.3832°E)
Time: 16:04:16
(UTC+00:00)

Daily predictions for brighter satellites

Satellite Brightness Start Highest point End
(mag) Time Altitude Azimuth Time Altitude Azimuth Time Altitude Azimuth
Feng Yun 1-1 Rocket 4.3 17:03:18 10° SSE 17:08:50 74° ENE 17:14:17 10° NNW
CSL-04 Rocket 3.9 17:03:29 10° SSE 17:09:03 80° WSW 17:14:39 10° NNW
Cosmos 372 Rocket 4.2 17:05:00 10° SSW 17:10:14 82° WNW 17:15:31 10° NNE
Cosmos 2074 Rocket 4.2 17:05:56 10° SSW 17:12:10 84° WNW 17:18:30 10° N
NOSS 2-3 (C) 4.4 17:07:33 10° NW 17:12:12 66° SW 17:18:35 10° SE
Cosmos 1898 Rocket 3.5 17:08:51 10° SSW 17:14:06 85° ESE 17:19:20 10° NNE
COBE Rocket 4.2 17:09:09 10° NNE 17:14:06 80° WNW 17:19:09 10° SSW
MOS 1 4.3 17:08:43 10° SSE 17:14:19 73° ENE 17:19:59 10° NNW
NOSS 2-1 (E) 4.0 17:11:32 10° NW 17:14:22 33° NNE 17:17:33 10° E
Cosmos 2278 Rocket 2.3 17:11:09 10° NNW 17:16:52 70° NE 17:22:30 10° SE
NOSS 2-1 (C) 3.8 17:14:17 10° NW 17:17:07 36° NNE 17:20:23 10° E
NOSS 2-1 (D) 3.7 17:14:50 10° NW 17:17:43 39° NNE 17:21:04 10° E
CZ-4B R/B 3.3 17:13:21 10° SSE 17:18:52 70° ENE 17:24:30 10° NNW
CZ-4B DEB 4.3 17:13:42 10° SSE 17:19:11 89° ENE 17:24:44 10° NNW
COSMOS 2428 3.3 17:14:36 10° S 17:19:43 35° ESE 17:24:52 10° NE
USA 234 3.6 17:14:01 10° ENE 17:20:17 46° SE 17:26:32 10° SW
SL-8 Rocket 4.4 17:15:58 10° SSE 17:21:51 45° E 17:27:48 10° NNE
BREEZE-M DEB (TANK) 3.7 17:20:22 10° SSW 17:22:10 18° SSE 17:24:42 10° ESE
Cosmos 1703 Rocket 4.1 17:18:41 10° NNW 17:22:58 61° W 17:27:12 10° S
BREEZE-M DEB (TANK) 3.3 17:21:10 10° SW 17:23:05 22° S 17:25:12 10° ESE
Cosmos 1680 Rocket 4.0 17:20:04 10° NNW 17:25:13 60° WSW 17:30:18 10° S
Cosmos 1378 Rocket 4.5 17:22:39 10° N 17:26:38 32° ENE 17:30:35 10° SE
USA 238 DEB 4.0 17:19:27 10° NW 17:26:38 86° NE 17:34:35 10° SE
USA 238 4.0 17:19:38 10° NW 17:26:49 86° NE 17:34:45 10° SE
Cosmos 1943 Rocket 2.3 17:22:53 10° NW 17:28:37 89° SW 17:34:17 10° SSE
ADEOS 3.6 17:24:23 10° SSE 17:29:36 77° ENE 17:34:50 10° NNW
Cosmos 1470 Rocket 4.1 17:25:20 10° SSW 17:29:40 65° WNW 17:34:01 10° N
Cosmos 1937 Rocket 3.5 17:25:31 10° SSW 17:30:49 87° ESE 17:36:09 10° NNE
PAYLOAD B 4.3 17:25:29 10° SSE 17:30:59 85° WSW 17:36:32 10° NNW
Cosmos 2333 Rocket 3.4 17:27:14 10° WSW 17:32:43 48° NW 17:38:12 10° NNE
IRS-1A Rocket 4.3 17:27:42 10° SSE 17:33:14 69° ENE 17:38:56 10° NNW
Cosmos 2366 rocket 4.2 17:27:57 10° SSE 17:33:49 49° E 17:39:41 10° NNE
Cosmos 1933 Rocket 3.5 17:32:41 10° S 17:37:03 76° E 17:41:29 10° NNE
Cosmos 2327 Rocket 4.5 17:30:56 10° S 17:37:05 70° E 17:43:22 10° NNE
COSMOS 2455 4.5 17:33:11 10° NW 17:38:22 29° N 17:43:32 10° ENE
Terra 1.8 17:37:38 10° SSE 17:42:20 85° WSW 17:47:05 10° NNW
In-Cosmos 22 Rocket 4.3 17:38:42 10° NNW 17:44:04 76° WSW 17:49:21 10° S
Aureole 3 3.9 17:43:46 10° N 17:47:50 52° ENE 17:52:31 11° SSE
Cosmos 1733 Rocket 3.8 17:44:09 10° SSE 17:48:03 33° E 17:52:01 10° NNE
SPOT 3 Rocket 4.2 17:44:39 12° SE 17:49:02 41° ENE 17:53:54 10° N
SKYMED 3 4.3 17:48:33 10° NNE 17:52:24 56° ESE 17:56:13 10° S
Helios 1A Rocket 2.5 17:49:40 10° NNE 17:52:55 73° WNW 17:56:07 10° SSW
Ariane Rocket 3.8 17:49:33 14° ESE 17:53:26 36° ENE 17:58:02 10° N
Geosat 4.1 17:49:56 10° NE 17:54:52 54° ESE 17:59:45 10° SSW
SL-08 R/B 3.5 17:50:34 10° NNE 17:55:23 54° E 18:00:11 10° S
Lacrosse 5 rocket 0.8 17:54:33 10° SW 17:57:39 52° SSE 18:00:47 10° ENE
ERS-1 Rocket 3.5 17:53:38 10° S 17:58:34 59° W 18:03:32 10° NNW
Cosmos 614 Rocket 4.0 17:53:49 10° NNW 17:59:01 70° ENE 18:03:12 16° SE
Cosmos 2360 Rocket 3.4 17:54:45 10° WSW 18:00:10 46° NW 18:05:39 10° NNE
Spot 2 Rocket 3.5 17:56:27 10° SSE 18:01:30 83° ENE 18:06:33 10° NNW
Meteor 2-21 4.4 17:56:04 10° N 18:02:13 77° ENE 18:08:22 10° SSE
Cosmos 2218 Rocket 3.9 17:57:20 10° S 18:03:25 69° E 18:09:33 10° NNE
Meteor 1-11 4.2 17:58:55 10° NNW 18:04:31 78° ENE 18:09:39 12° SSE
Cosmos 1025 Rocket 3.5 18:01:49 10° N 18:05:52 41° ENE 18:08:31 19° SE
Cosmos 1869 Rocket 3.7 18:02:45 10° SSW 18:07:09 80° WNW 18:11:37 10° N
SeaSat 1 3.6 18:03:22 12° E 18:07:16 32° NE 18:11:36 10° NNW
ATLAS 3B R/B 3.7 18:00:15 10° WSW 18:07:59 60° NNW 18:15:47 10° NE
ATLAS 5 CENTAUR R/B 3.1 18:05:22 10° WNW 18:08:10 24° N 18:11:20 10° NE
Okean-O 2.6 18:05:33 12° SSE 18:09:37 89° WSW 18:14:02 10° NNW
Cosmos 2322 Rocket 3.7 18:05:08 10° WSW 18:10:23 39° NW 18:15:41 10° NNE
NOSS 3-4 (A) 3.7 18:07:25 10° S 18:12:08 33° ESE 18:17:19 10° ENE
Cosmos 1821 Rocket 4.1 18:06:22 10° S 18:12:29 61° E 18:18:44 10° NNE
NOSS 3-4 (C) 3.8 18:07:54 10° S 18:12:39 33° ESE 18:17:51 10° ENE
USA 186 1.3 18:15:49 26° S 18:16:47 56° W 18:18:58 10° NNW
CZ-4B R/B 3.5 18:13:47 19° SE 18:17:13 60° ENE 18:21:56 10° NNW
USA 32 4.0 18:12:13 10° S 18:17:26 77° E 18:22:41 10° N
NOSS 3-1 (C) 4.1 18:13:02 10° NW 18:19:09 59° NNE 18:26:02 14° ESE
Cosmos 1400 Rocket 3.0 18:18:06 22° SSE 18:19:58 40° E 18:23:23 10° NNE
CZ-4 R/B 3.7 18:17:21 10° SW 18:20:14 21° W 18:23:07 10° NW
CZ-4B R/B 2.6 18:18:47 23° SSE 18:20:49 64° ENE 18:24:16 10° N
SL-16 R/B 4.4 18:16:02 10° W 18:20:53 28° NNW 18:25:45 10° NNE
Helios 1B rocket 4.3 18:19:53 11° ENE 18:21:14 14° NE 18:23:02 10° NNE
Cosmos 2237 Rocket 2.5 18:17:23 10° S 18:22:43 44° ESE 18:28:06 10° NE
Cosmos 1980 3.9 18:18:27 10° S 18:23:50 47° ESE 18:29:13 10° NE
ASTEX 1 3.3 18:21:31 16° SSE 18:25:27 75° E 18:30:23 10° N
ARIANE 6 FM1 Upper Stage 3.5 18:21:44 10° W 18:25:43 50° NNW 18:29:39 10° NE
CZ-2C R/B 2.4 18:25:11 33° ESE 18:26:05 47° ENE 18:28:54 10° N
Cosmos 1000 Rocket 4.5 18:22:27 10° N 18:28:40 71° ENE 18:33:14 19° SSE
Okean O Rocket 2.1 18:25:01 12° S 18:28:58 59° WSW 18:33:16 10° NNW
Cosmos 2297 4.4 18:23:59 10° NNW 18:29:31 44° NE 18:33:21 19° ESE
Cosmos 2242 Rocket 4.0 18:25:18 10° NNW 18:29:46 64° W 18:33:39 13° S
USA 245 3.7 18:28:00 21° SSE 18:30:52 86° ENE 18:36:00 10° NNW
Cosmos 2322 3.8 18:25:29 10° SW 18:31:13 82° NW 18:37:00 10° NNE
Cosmos 1602 3.6 18:30:21 10° N 18:32:23 30° ENE 18:32:23 30° ENE
Cosmos 2219 Rocket 3.5 18:29:21 10° WSW 18:34:39 42° NW 18:39:59 10° NNE
Meteor 2-21 Rocket 4.4 18:30:34 10° NNW 18:36:42 89° W 18:41:36 17° S
USA 59 Rocket -0.2 18:33:42 10° WNW 18:36:50 55° SW 18:38:24 30° SSE
Cosmos 1346 Rocket 2.5 18:34:13 10° NNW 18:37:51 73° ENE 18:39:22 33° SSE
RESURS DK-1 3.1 18:42:08 29° ESE 18:42:08 29° ESE 18:45:25 10° NE
NOSS 0 Rocket 3.9 18:38:03 10° SSW 18:44:17 79° ESE 18:50:33 10° NE
Cosmos 1674 Rocket 3.6 18:42:17 10° NNW 18:46:36 77° W 18:49:09 24° S
Cosmos 2369 Rocket 2.4 18:44:29 10° NNW 18:50:03 59° NE 18:53:07 26° ESE
Cosmos 1908 Rocket 3.9 18:51:54 33° SE 18:53:15 45° E 18:57:23 10° NNE
Dummy Sat-02 4.4 18:53:00 31° S 18:54:37 89° ESE 18:58:15 10° N
Cosmos 405 Rocket 3.1 18:55:35 10° N 18:58:14 31° ENE 18:58:14 31° ENE
Cosmos 1125 Rocket 3.4 18:55:00 13° SSW 18:59:36 66° ESE 19:04:50 10° NNE
Cosmos 2278 Rocket 3.7 18:55:41 10° NW 19:00:32 30° WSW 19:05:01 11° SSW
Cosmos 1656 Rocket 3.7 18:56:26 10° NW 19:01:52 72° WSW 19:04:39 30° SSE
Cosmos 1782 Rocket 4.4 19:01:51 30° ESE 19:02:18 31° E 19:06:06 10° NNE
SJ 16-02 3.6 19:00:23 10° N 19:02:58 15° NE 19:05:32 10° ENE
NOSS 2-1 (E) 3.4 19:00:05 10° WNW 19:03:13 49° SW 19:03:59 40° S
COSMOS 2428 3.3 18:58:02 10° SW 19:03:43 61° NW 19:09:26 10° NNE
USA 234 3.2 18:57:10 10° ENE 19:03:46 85° SSE 19:10:22 10° WSW
IRS-1C Rocket 4.2 19:01:19 25° S 19:04:28 73° WSW 19:09:46 10° NNW
NOSS 2-1 (C) 3.7 19:02:52 10° WNW 19:05:56 42° SW 19:06:39 37° SSW
NOSS 2-1 (D) 3.9 19:03:19 10° WNW 19:06:21 37° SW 19:07:06 33° SSW
SL-08 R/B 4.4 19:02:36 22° S 19:06:40 71° E 19:12:46 10° NNE
Cosmos 1943 Rocket 4.2 19:07:28 10° NW 19:11:37 21° WSW 19:15:47 10° SSW
Meteor 2-8 Rocket 4.4 19:07:23 16° S 19:12:20 90° E 19:18:27 10° NNE
NOSS 3-1 (A) 4.2 19:06:20 10° NW 19:12:31 59° NNE 19:18:50 16° ESE
DNEPR-1 R/B 3.4 19:09:57 10° SW 19:14:09 84° SE 19:18:45 10° NE
Cosmos 2221 Rocket 3.7 19:10:14 10° NNW 19:14:37 69° W 19:16:28 34° S
Cosmos 921 Rocket 4.1 19:15:22 10° NNW 19:19:29 35° NE 19:20:52 28° E
Terra 4.4 19:17:50 10° WSW 19:20:36 15° W 19:23:23 10° NW
COSMOS 2455 3.6 19:19:47 10° NW 19:25:37 48° NNE 19:29:24 21° E
Cosmos 1733 Rocket 4.5 19:21:37 10° SW 19:25:41 37° WNW 19:29:47 10° N
SPOT 3 Rocket 4.5 19:25:12 20° SSW 19:28:25 42° W 19:33:21 10° NNW
Cosmos 2150 Rocket 4.3 19:28:19 41° SE 19:29:08 44° ESE 19:34:03 10° NE
Ariane Rocket 3.7 19:29:37 25° SSW 19:32:15 46° W 19:37:07 10° NNW
SL-16 R/B 2.5 19:31:41 39° SE 19:32:51 45° ESE 19:38:14 10° NE
SWAS 4.4 19:29:41 10° NNW 19:33:44 65° NE 19:34:27 53° ESE
Lacrosse 5 rocket 0.8 19:31:05 10° W 19:34:16 70° N 19:34:17 70° N
Cosmos 2058 3.0 19:32:17 10° N 19:36:10 52° ENE 19:36:28 50° E
Cosmos 44 4.5 19:37:56 28° E 19:37:56 28° E 19:41:31 10° ENE
Cosmos 2346 Rocket 4.4 19:32:32 10° N 19:38:41 74° ENE 19:41:07 39° SSE
Cosmos 1315 Rocket 3.5 19:40:41 37° ENE 19:40:41 37° ENE 19:43:41 10° NNE
Cosmos 1300 Rocket 3.4 19:42:33 59° S 19:43:21 82° E 19:47:39 10° NNE
TSX-5 4.1 19:38:36 10° SW 19:43:22 74° NW 19:47:20 10° NE
SeaSat 1 2.4 19:42:58 47° SSE 19:44:21 75° WSW 19:49:18 10° NW
Helios 1A 3.1 19:40:47 10° NNE 19:44:31 50° E 19:44:31 50° E
Cosmos 1934 Rocket 4.0 19:42:07 26° SSW 19:45:51 83° W 19:52:08 10° N
Cosmos 1447 Rocket 4.5 19:43:28 10° N 19:49:49 78° ENE 19:52:09 41° SSE
ATLAS 5 CENTAUR R/B 2.6 19:47:39 10° NW 19:51:02 36° NNE 19:53:07 22° ENE
Cosmos 2084 Rocket 3.2 19:50:04 45° SW 19:51:17 84° SE 19:55:27 10° NE
Cosmos 1869 3.1 19:53:24 70° W 19:53:29 70° WNW 19:57:04 10° N
Helios 1B rocket 2.0 19:53:53 82° NNW 19:53:53 82° NNW 19:57:16 10° NNW
Cosmos 371 Rocket 4.1 19:50:54 10° NNW 19:55:31 42° NE 19:56:56 34° E
Cosmos 407 Rocket 3.9 19:51:22 10° NNW 19:56:27 53° NE 19:57:57 40° ESE
ATLAS 3B R/B 4.0 19:52:29 10° WNW 20:00:05 47° N 20:07:34 10° ENE
NOSS 3-4 (A) 3.4 19:57:03 10° WSW 20:02:29 75° NNW 20:08:43 10° NE
NOSS 3-4 (C) 3.4 19:57:32 10° WSW 20:02:59 75° NW 20:09:15 10° NE
Cosmos 1140 Rocket 3.4 19:57:56 10° NNW 20:03:07 82° WSW 20:04:15 56° SSE
ARIANE 6 FM1 Upper Stage 4.3 20:01:40 10° WNW 20:05:21 33° N 20:09:00 10° ENE
Cosmos 2237 Rocket 3.0 20:01:14 10° WSW 20:06:46 50° NW 20:12:21 10° NNE
NOSS 3-1 (C) 4.0 20:03:37 10° NW 20:10:14 65° SW 20:13:20 39° SSE
Cosmos 1975 Rocket 3.4 20:07:27 10° NNW 20:11:50 56° W 20:12:31 49° SW
Cosmos 2285 Rocket 3.9 20:10:28 32° SSW 20:13:38 88° ESE 20:20:01 10° NNE
Cosmos 2297 4.1 20:08:15 10° NW 20:13:50 52° WSW 20:15:15 42° SSW
Cosmos 1535 Rocket 4.4 20:12:13 38° SSW 20:14:46 81° WNW 20:20:57 10° N
Cosmos 1356 Rocket 3.4 20:15:18 66° ENE 20:15:18 66° ENE 20:19:03 10° NNE
ALOS 2 2.8 20:17:13 53° E 20:17:37 56° ENE 20:21:56 10° N
RESURS DK-1 3.2 20:17:16 26° WSW 20:19:11 47° NW 20:23:03 10° NNE
Cosmos 1605 Rocket 3.9 20:17:09 39° SSW 20:19:34 80° WNW 20:25:45 10° N
Cosmos 2298 Rocket 4.0 20:20:41 46° SSW 20:22:20 87° WNW 20:27:43 10° NNE
Cosmos 1656 4.3 20:17:46 10° NNW 20:23:03 47° NE 20:25:13 31° E
Cosmos 1862 3.9 20:22:21 10° NNW 20:25:31 43° WNW 20:25:31 43° WNW
ARIANE 5 R/B 2.4 20:26:44 78° ESE 20:26:55 81° ENE 20:31:18 10° NNW
Cosmos 1818 4.1 20:27:07 10° NW 20:32:30 55° NNE 20:35:11 28° E
Spot 4 3.6 20:32:16 72° SSE 20:32:47 87° ENE 20:37:34 10° NNW
Cosmos 2369 Rocket 3.0 20:28:49 10° NW 20:33:51 35° WSW 20:34:53 33° SW
Cosmos 2173 Rocket 4.1 20:38:04 50° SE 20:39:20 60° E 20:45:20 10° NNE
ACS3 Solar Sail 4.1 20:40:07 10° ENE 20:40:38 10° ENE 20:41:10 10° E
SJ 16-02 1.4 20:37:40 10° NNW 20:41:56 63° ENE 20:42:01 63° ENE
USA 234 3.3 20:40:17 10° E 20:46:50 81° N 20:53:25 10° W
Cosmos 1190 Rocket 4.3 20:41:48 10° NNW 20:47:06 63° ENE 20:48:17 49° ESE
SAR-Lupe-2 4.4 20:49:00 47° NW 20:49:00 47° NW 20:51:37 10° NNW
Cosmos 2100 Rocket 3.9 20:47:41 53° SSE 20:49:05 71° E 20:55:15 10° NNE
Cosmos 1697 Rocket 4.0 20:44:08 10° NNW 20:49:20 35° NE 20:53:12 16° E
MetOp-A 4.0 20:49:22 60° ESE 20:50:03 69° ENE 20:55:08 10° NNW
Cosmos 2360 4.5 20:47:13 10° NNW 20:52:54 63° NE 20:54:45 41° ESE
Cosmos 1943 3.1 20:52:38 61° SSE 20:53:17 66° ESE 20:58:56 10° NE
Meteor 2-1 Rocket 4.5 20:53:51 50° SE 20:54:46 55° E 21:00:27 10° NNE
Cosmos 921 Rocket 3.8 20:53:28 10° NW 20:57:26 40° W 20:57:26 40° W
NOSS 3-1 (A) 3.9 20:56:59 10° NW 21:03:40 65° SW 21:06:11 45° SSE
CZ-2C R/B 3.0 21:03:23 46° ESE 21:04:45 60° ENE 21:10:09 10° N
Cosmos 1980 Rocket 4.0 21:01:03 10° NNW 21:05:58 28° NNE 21:10:52 10° E
BREEZE-M R/B 4.4 20:57:19 10° WSW 21:06:06 54° SSE 21:11:37 10° E
Cosmos 332 Rocket 4.3 21:06:39 10° NNW 21:11:25 52° NE 21:12:21 45° E
COSMOS 2455 2.9 21:05:52 10° NW 21:11:47 60° SW 21:12:30 56° SSW
Cosmos 304 Rocket 4.0 21:07:27 10° NW 21:11:56 53° WSW 21:11:56 53° WSW
Cosmos 2228 4.4 21:15:35 28° E 21:15:35 28° E 21:18:48 10° NNE
Cosmos 1315 Rocket 4.4 21:15:21 24° WNW 21:15:49 25° WNW 21:19:00 10° N
SL-16 R/B 3.0 21:13:28 22° WSW 21:16:58 49° NW 21:22:31 10° NNE
Cosmos 44 3.5 21:16:10 47° WSW 21:17:41 75° NW 21:23:06 10° NE
Cosmos 2251 Rocket 3.4 21:13:24 10° NNW 21:18:44 80° WSW 21:19:17 71° S
Cosmos 968 Rocket 4.2 21:14:23 10° NNW 21:19:26 48° NE 21:21:08 35° ESE
Cosmos 676 Rocket 4.1 21:14:11 10° NNW 21:19:30 70° ENE 21:20:31 55° ESE
Cosmos 1420 Rocket 4.4 21:20:22 47° ESE 21:20:24 47° ESE 21:25:27 10° NE
Cosmos 1954 Rocket 3.8 21:16:35 10° NNW 21:21:53 89° ENE 21:22:29 71° SSE
SeaSat 1 4.4 21:22:34 16° WSW 21:22:34 16° WSW 21:25:31 10° WNW
Cosmos 1536 Rocket 4.4 21:18:31 10° NNW 21:22:19 40° W 21:22:19 40° W
Cosmos 1864 Rocket 4.4 21:23:06 56° S 21:24:36 86° E 21:31:00 10° NNE
Cosmos 2151 Rocket 3.8 21:27:43 61° WNW 21:27:46 61° WNW 21:32:09 10° N
SL-08 R/B 4.4 21:29:44 56° SSE 21:31:02 73° E 21:37:13 10° NNE
ATLAS 5 CENTAUR R/B 2.1 21:29:28 10° NW 21:32:15 47° WNW 21:32:15 47° WNW
Cosmos 1725 Rocket 3.9 21:33:54 55° SSW 21:35:27 89° WNW 21:41:50 10° NNE
Cosmos 371 Rocket 4.1 21:31:14 10° NW 21:35:22 38° W 21:35:22 38° W
CZ-2C R/B 3.0 21:31:25 10° NNE 21:36:25 65° ESE 21:36:52 62° SE
Cosmos 1802 Rocket 4.0 21:35:01 54° SSW 21:36:37 83° W 21:42:58 10° N
Cosmos 2056 Rocket 4.2 21:36:55 39° ESE 21:37:10 39° ESE 21:42:11 10° NE
Okean 2 Rocket 3.2 21:37:25 64° WNW 21:37:25 64° WNW 21:41:51 10° N
Meteor 2-3 Rocket 4.1 21:32:18 10° NNW 21:37:40 47° W 21:38:25 44° WSW
Cosmos 407 Rocket 4.4 21:33:36 10° NW 21:38:02 32° W 21:38:02 32° W
Cosmos 1782 4.0 21:40:09 32° NE 21:40:09 32° NE 21:42:30 10° NNE
Cosmos 1743 4.2 21:36:59 10° NNW 21:38:32 27° NNW 21:38:32 27° NNW
Cosmos 1626 Rocket 4.1 21:36:27 10° N 21:40:38 47° ENE 21:40:49 47° E
Cosmos 1892 Rocket 3.8 21:40:09 10° NNW 21:44:16 62° WNW 21:44:16 62° WNW
ARIANE 6 FM1 Upper Stage 3.4 21:41:04 10° NW 21:44:59 50° NNE 21:45:58 40° ENE
ATLAS 3B R/B 3.3 21:44:11 10° NW 21:52:05 66° NNE 21:59:39 10° ESE
Okean 1 Rocket 3.5 21:53:44 51° WNW 21:53:45 51° WNW 21:58:01 10° N
ALOS 2 4.2 21:54:36 24° W 21:54:36 24° W 21:57:52 10° NW
Cosmos 1833 Rocket 3.8 21:54:11 28° ESE 21:54:43 28° ESE 21:59:26 10° NE
Cosmos 2233 Rocket 3.9 21:53:29 55° S 21:55:02 89° E 22:01:22 10° NNE
USA 281 3.6 21:54:56 22° SE 21:59:15 63° NE 22:05:45 10° NNW
USA 229 DEB 4.0 21:53:20 10° NW 22:00:31 79° NE 22:08:36 10° ESE
USA 229 4.0 21:53:23 10° NW 22:00:35 78° NE 22:08:40 10° ESE
PSLV R/B 4.2 21:57:19 10° N 22:01:19 43° WNW 22:01:30 43° WNW
Sich 1 Rocket 4.1 22:02:13 48° W 22:02:22 48° WNW 22:06:40 10° N
Meteor 1-27 4.2 22:04:31 59° SSW 22:05:41 90° WNW 22:11:29 10° NNE
Cosmos 1656 4.0 22:01:31 10° NW 22:06:36 45° WSW 22:06:36 45° WSW
Meteor 1-20 Rocket 4.3 22:03:47 10° NNW 22:09:16 70° ENE 22:10:42 48° SE
ATLAS 2AS CENTAUR R/B 3.7 22:08:25 29° SE 22:09:37 31° ESE 22:15:25 10° ENE
Cosmos 2151 3.1 22:06:49 10° N 22:10:59 63° ENE 22:11:02 63° E
Cosmos 2016 Rocket 4.3 22:10:46 43° SW 22:12:41 59° WNW 22:18:58 10° N
Cosmos 1455 Rocket 3.2 22:12:41 62° WNW 22:12:44 62° WNW 22:17:09 10° N
Landsat 5 3.4 22:09:21 10° NNE 22:13:28 84° NNW 22:13:28 84° NNW
ARGOS Delta rocket 4.2 22:09:44 10° N 22:13:57 47° WNW 22:14:19 46° W
Cosmos 1818 3.8 22:10:50 10° NW 22:15:46 49° WSW 22:15:46 49° WSW
Cosmos 2061 Rocket 3.9 22:14:37 52° SSW 22:16:14 79° WNW 22:22:29 10° N
Nadezhda 4 Rocket 4.2 22:10:53 10° N 22:17:04 64° ENE 22:19:34 36° SE
DELTA 2 DEB (DPAF) 4.1 22:13:30 10° NNE 22:16:28 56° NNE 22:16:28 56° NNE
Aureole 3 Rocket 3.0 22:17:34 80° S 22:17:49 89° ESE 22:23:23 10° NNE
Cosmos 292 Rocket 3.6 22:13:18 10° NNW 22:18:08 85° WSW 22:18:29 77° S
Cosmos 1371 Rocket 3.9 22:18:24 63° SSE 22:19:05 72° ESE 22:24:23 10° NNE
SJ 16-02 3.2 22:16:26 10° NW 22:18:30 19° WNW 22:18:30 19° WNW
CZ-4C R/B 4.1 22:16:35 10° NNE 22:18:46 40° NNE 22:18:46 40° NNE
Cosmos 1544 Rocket 3.9 22:19:57 54° ESE 22:20:10 54° E 22:24:30 10° NNE
Tsikada Rocket 4.5 22:15:04 10° NNW 22:21:04 46° W 22:22:25 40° WSW
Cosmos 1758 Rocket 3.4 22:18:09 10° NNW 22:22:20 80° WNW 22:22:20 80° WNW
Meteor 1-22 4.5 22:17:26 10° NNW 22:22:53 80° WSW 22:23:47 62° S
Cosmos 1805 4.3 22:21:10 10° N 22:23:57 32° ENE 22:23:57 32° ENE
ACS3 Solar Sail 2.3 22:18:49 10° NNE 22:24:36 47° E 22:26:41 35° SE
Cosmos 1603 3.9 22:23:25 45° WSW 22:25:06 67° NW 22:30:48 10° NNE
Cosmos 1741 Rocket 3.9 22:23:14 10° NNW 22:28:34 90° SSE 22:29:50 54° SSE
USA 234 3.1 22:23:24 10° ESE 22:29:58 78° SSW 22:36:34 10° WNW
Cosmos 1697 Rocket 2.6 22:28:06 10° NW 22:33:45 71° WSW 22:34:53 55° S
Cosmos 1943 4.4 22:34:22 20° W 22:37:42 37° NW 22:42:58 10° NNE
Cosmos 1452 Rocket 4.4 22:37:06 32° SE 22:38:15 36° ESE 22:43:01 10° NE
Cosmos 1513 Rocket 4.5 22:40:26 46° S 22:42:32 88° E 22:48:56 10° NNE
Cosmos 2369 4.5 22:39:33 10° NNW 22:45:07 52° NE 22:50:41 10° ESE
IDEFIX/ARIANE 42P 3.6 22:40:23 10° NNE 22:45:10 37° E 22:46:59 28° SE
CZ-2C R/B 3.7 22:44:49 31° WSW 22:45:17 31° W 22:50:09 10° NNW
Cosmos 2026 Rocket 4.3 22:43:39 10° N 22:49:50 65° ENE 22:53:28 26° SSE
Cosmos 1980 Rocket 2.2 22:45:01 10° NNW 22:50:46 83° NE 22:54:16 25° SE
Cosmos 2333 Rocket 4.0 22:45:49 10° NNW 22:50:54 32° NE 22:55:57 10° E
Cosmos 1825 Rocket 3.7 22:47:10 10° N 22:51:27 65° ENE 22:52:21 50° SE
Cosmos 2228 3.6 22:51:49 41° WNW 22:52:01 41° WNW 22:56:01 10° N
Cosmos 1092 Rocket 4.4 22:46:52 10° N 22:52:59 60° ENE 22:56:55 23° SSE
Cosmos 1437 Rocket 3.4 22:53:42 39° E 22:53:42 39° E 22:56:46 10° NNE
Cosmos 1602 Rocket 3.4 22:49:39 10° NNW 22:53:58 69° W 22:54:05 68° WSW
Cosmos 1076 Rocket 4.1 22:50:24 10° N 22:54:39 52° ENE 22:56:04 36° SE
Cosmos 968 Rocket 4.1 22:56:17 10° NW 23:01:01 38° WSW 23:01:01 38° WSW
Spot 1 3.7 22:57:25 10° NNE 23:01:29 83° ESE 23:01:50 73° S
SL-16 R/B 4.4 22:58:08 10° WNW 23:02:26 21° NNW 23:06:44 10° NNE
Resurs 1-4 Rocket 4.3 22:58:59 10° NE 23:02:40 19° E 23:06:19 10° SE
Okean 1-7 Rocket 3.4 23:00:06 10° NNW 23:04:29 83° W 23:05:05 65° S
Meteor 1-25 Rocket 4.3 23:02:23 10° NNW 23:08:10 63° W 23:09:53 44° SSW
Cosmos 1782 4.3 23:14:04 21° WNW 23:14:04 21° WNW 23:16:43 10° NNW
H-2A R/B 4.1 23:11:27 10° ESE 23:14:36 27° ENE 23:17:44 10° N
CZ-2C R/B 4.4 23:11:43 10° N 23:15:56 28° WNW 23:17:51 22° W
Cosmos 2360 Rocket 4.1 23:12:31 10° NNW 23:17:33 31° NE 23:22:34 10° E
ADEOS Rocket 4.1 23:10:41 10° NNE 23:17:41 49° E 23:23:11 19° SSE
Cosmos 1850 Rocket 4.4 23:13:49 10° NW 23:18:38 40° WSW 23:18:56 39° WSW
Cosmos 2056 Rocket 4.2 23:17:08 33° WSW 23:19:10 48° NW 23:24:27 10° NNE
Cosmos 2082 Rocket 3.6 23:18:10 19° SSE 23:21:07 29° ESE 23:25:58 10° NE
GP-B 3.0 23:16:44 10° N 23:21:09 88° E 23:22:13 51° S
ARIANE 6 FM1 Upper Stage 4.1 23:20:10 10° WNW 23:21:54 23° WNW 23:21:54 23° WNW
Cosmos 2322 Rocket 3.8 23:22:46 10° NNW 23:27:56 35° NE 23:33:05 10° ESE
Cosmos 1634 Rocket 4.4 23:24:32 23° SSE 23:28:19 58° E 23:34:22 10° NNE
Cosmos 1302 Rocket 4.4 23:29:11 33° S 23:31:15 56° ESE 23:36:19 10° NE
Cosmos 1627 Rocket 4.4 23:26:22 10° NNW 23:32:35 75° W 23:36:00 29° S
USA 267 3.6 23:27:11 10° ENE 23:33:33 50° SE 23:36:26 31° SSW
Cosmos 2058 Rocket 4.1 23:33:31 23° SSE 23:35:50 42° E 23:40:02 10° NNE
MOZ.5/SAFIR/RUBIN 5/SL-8 3.8 23:33:16 25° SSE 23:36:02 81° ENE 23:40:44 10° NNW
Cosmos 2237 4.2 23:30:44 10° NW 23:36:31 85° NE 23:42:16 10° SE
Cosmos 1536 3.3 23:33:28 10° N 23:37:04 51° ENE 23:38:59 24° SE
Gbstr 26 Del rocket 3.1 23:38:00 42° SSE 23:38:00 42° SSE 23:41:10 10° E
Cosmos 1833 Rocket 2.7 23:35:50 36° SW 23:38:12 71° NW 23:43:50 10° NNE
Cosmos 1606 Rocket 3.5 23:37:08 47° SSW 23:38:23 79° WNW 23:42:50 10° N
SL-16 R/B 2.9 23:32:51 10° NNW 23:38:28 55° NE 23:44:01 10° SE
Cosmos 1933 3.9 23:39:14 38° W 23:39:36 39° WNW 23:43:13 10° N
SL-4 R/B 2.4 23:42:00 40° SSE 23:42:00 40° SSE 23:45:24 10° E
ATLAS 3B R/B 3.0 23:35:18 10° NW 23:42:55 56° SW 23:50:08 10° SSE
FENGYUN 3A 3.8 23:37:56 10° NNE 23:43:24 74° ESE 23:46:15 29° S
Cosmos 1331 Rocket 4.1 23:41:51 36° SW 23:43:58 66° WNW 23:49:14 10° NNE
USA 281 3.6 23:41:47 31° SSW 23:44:04 40° WSW 23:50:15 10° NW
Envisat 4.2 23:39:26 10° NNE 23:44:09 37° E 23:47:59 14° SSE
NOSS 3-4 (A) 4.5 23:40:10 10° WNW 23:46:06 51° NNE 23:53:05 10° E
Cosmos 1867 3.9 23:44:20 32° S 23:46:37 55° SE 23:51:57 10° NE
NOSS 3-4 (C) 4.5 23:40:40 10° WNW 23:46:38 51° NNE 23:53:38 10° E
Cosmos 1766 2.8 23:45:47 10° N 23:49:00 73° ENE 23:49:49 46° SSE
CZ-4C R/B 3.4 23:47:13 18° SSE 23:49:20 24° ESE 23:53:34 10° ENE
USA 229 DEB 4.3 23:44:21 10° NW 23:51:16 44° WSW 23:58:51 10° S
USA 229 4.3 23:44:24 10° NW 23:51:20 44° WSW 23:58:57 10° SSE
Cosmos 2219 Rocket 4.0 23:46:48 10° NNW 23:51:52 33° NE 23:56:56 10° E
Cosmos 2098 Rocket 4.0 23:49:40 32° SW 23:51:57 52° WNW 23:57:33 10° N
CZ-2D R/B 3.3 23:47:54 10° NNE 23:52:44 36° E 23:57:19 11° SSE
Cosmos 1110 Rocket 4.4 23:50:47 31° WSW 23:53:05 55° NW 23:58:19 10° NNE
